カタログに戻る

STARLINK-3338

運用中通信VLEO
NORAD 50812·PAYLOAD·🇺🇸 United States

打ち上げ Jan 6, 2022 から Cape Canaveral Space Force Station

Loading…

次のパス (今後24時間)

TLE

最新Source: CelesTrak SupGP

元期: Sep 14, 2026, 21:35 UTC

1 50812C 22001K   26257.89979167  .00000182  00000+0  53677-5 0  2579
2 50812  53.1598  21.6619 0001127  83.0737 269.0078 15.34389730    19

AllMySatでSTARLINK-3338をリアルタイム追跡

Download on the App Store